Погода в Плесах

Беларусь     52°27′15″N   31°03′52″E
темп.,
°C
ветер,
м/с
пор.,
м/с
влажн.,
%
обл.,
%
осадки,
мм/ч
давл.,
гПа
погр.,
м
7 мая, пт
пт700:00+6зюз227028 0.0 101122
03:00+5ююз337112 0.0 101251
06:00+4ююз367527 0.0 1012116
09:00+10ююз475881 0.0 1012539
12:00+14ююз6950100 0.0 10111675
15:00+13ю6954100 0.1 10091700
18:00+10ююв41083100 1.8 1007666
21:00+10ю41093100 2.9 1006416
8 мая, сб
сб800:00+9ююз3697100 0.3 1005199
03:00+8з2497100 0.3 1005118
06:00+8зсз2497100 0.0 1004123
09:00+9сз3588100 0.3 1005456
12:00+8зсз6894100 4.1 1006681
15:00+6сз6892100 11.0 10081048
18:00+7сз61077100 2.9 10101098
21:00+5зсз5128264 3.2 1013483
9 мая, вс
вс900:00+3з411884 0.0 1015253
03:00+3зсз513862 0.0 1018330
06:00+2зсз411904 0.0 1020296
09:00+7сз58660 0.0 1022635
12:00+11сз574827 0.0 10231637
15:00+12сз46435 0.0 10241892
18:00+12сз34485 0.0 10241624
21:00+8с11585 0.0 102610
10 мая, пн
пн1000:00+6ююв22645 0.0 102712
03:00+5ююз22694 0.0 102817
06:00+5ююв22724 0.0 102917
09:00+11ююв23571 0.0 1030357
12:00+15юв22440 0.0 10291391
15:00+16всв22401 0.0 10281519
18:00+16всв3351100 0.0 10271215
21:00+10в33684 0.0 102839
11 мая, вт
вт1100:00+8всв23720 0.0 102833
03:00+7всв34760 0.0 102869
06:00+6всв36790 0.0 1028102
09:00+12всв58600 0.0 1027434
12:00+16всв57510 0.0 1026882
15:00+19всв56530 0.0 10241020
18:00+19всв47650 0.0 10231030
21:00+14в411882 0.0 1023272